Location: Tierra Monte Subdivision
(35.2092°N, 106.4864°W)
Time: 03:36:24
(UTC+00:00)

Meteor 2-15 Rocket - Pass Details

Date: 30 March 2020
Orbit: 940 x 955 km, 82.5° (Epoch: 02 June)

Event Time Altitude Azimuth Distance (km) Brightness Sun altitude
Rises 02:45:52 0° 176° (S) 3,594 7.3 -16.9°
Reaches altitude 10° 02:48:22 10° 173° (S) 2,651 6.5 -17.4°
Maximum altitude 02:54:20 63° 93° (E) 1,042 4.4 -18.5°
Drops below altitude 10° 03:00:19 10° 14° (NNE) 2,661 6.9 -19.7°
Sets 03:02:50 0° 11° (N) 3,609 7.6 -20.2°
